#timestamp,LO_Frequency,Hit,StdDev 
1633528815.1,286046999.1,N
1633528816.0,286046999.1,N
1633528835.8,286046996.9,N
1633528855.6,286046997.0,N
1633528875.5,286046997.4,N
1633528895.3,286046995.9,N
1633528915.2,286046995.2,N
1633528935.9,286046995.3,N
1633528955.7,286046997.9,N
1633528975.6,286046997.6,N
1633528995.4,286046997.6,N
1633529015.2,286046995.3,N
1633529035.1,286046997.5,N
1633529036.0,286046997.5,N
1633529055.8,286046997.5,N
1633529075.7,286046997.7,N
1633529095.5,286046997.7,N
1633529115.3,286046997.4,N
1633529135.2,286046995.0,Y
1633529155.0,286046996.7,P
1633529155.9,286046996.7,P
1633529175.7,286046998.4,P
1633529195.6,286047000.8,N
1633529215.4,286046998.6,N
1633529235.3,286047000.8,N
1633529255.1,286046999.3,N
1633529256.0,286046999.3,N
1633529275.8,286046999.3,N
1633529295.7,286046999.1,N
1633529315.5,286046998.0,N
1633529335.3,286046997.2,N
1633529355.2,286046997.3,N
1633529375.0,286046997.0,N
1633529375.9,286046997.0,N
1633529395.8,286046999.3,N
1633529415.6,286046999.1,N
1633529435.4,286046999.3,N
1633529455.3,286046998.9,N
1633529475.1,286046998.3,N
1633529495.9,286046998.8,N
1633529515.7,286047000.9,N
1633529535.5,286047000.5,N
1633529555.4,286047002.4,N
1633529575.2,286046998.1,N
1633529595.0,286046999.8,N
1633529595.9,286046999.8,N
1633529615.8,286047001.0,N
1633529635.6,286047000.8,N
1633529655.5,286046999.9,N
1633529675.3,286047002.4,N
1633529695.1,286047000.6,N
1633529715.9,286047000.8,N
1633529735.7,286046998.7,N
1633529755.5,286047000.6,N
1633529775.4,286046999.8,N
1633529795.2,286047000.7,N
1633529815.1,286047000.7,N
1633529816.0,286047000.7,N
1633529835.8,286046999.0,N
1633529855.6,286046999.5,N
1633529875.5,286046997.4,N
1633529895.3,286046999.2,N
1633529915.1,286046997.8,N
1633529935.9,286046997.2,N
1633529955.7,286046996.7,N
1633529975.6,286046997.1,N
1633529995.4,286046996.5,N
1633530015.2,286047000.1,N
1633530035.1,286047001.0,N
1633530036.0,286047001.0,N
1633530055.8,286046999.1,N
1633530075.7,286046996.9,N
1633530095.5,286046996.7,N
1633530115.3,286046999.5,N
1633530135.2,286046998.8,N
1633530155.0,286047000.8,N
1633530155.9,286047000.8,N
1633530175.7,286047000.3,N
1633530195.6,286047000.1,N
1633530215.4,286047002.4,N
1633530235.3,286046999.8,N
1633530255.1,286047002.3,N
1633530275.8,286047001.0,N
1633530295.7,286046999.9,N
1633530315.5,286047000.3,N
1633530335.4,286047000.0,N
1633530355.2,286046998.5,N
1633530375.0,286046998.8,N
1633530375.9,286046998.8,N
1633530395.8,286046998.5,N
1633530415.6,286046999.4,N
1633530435.4,286046999.3,N
1633530455.3,286046998.7,N
1633530475.1,286047000.7,N
1633530495.9,286047000.4,N
1633530515.7,286047002.7,N
1633530535.5,286046999.8,N
1633530555.4,286047001.6,N
1633530575.2,286047000.2,N
1633530595.0,286047000.4,N
1633530595.9,286047000.4,N
1633530615.8,286046999.8,N
1633530635.6,286047002.8,N
1633530655.5,286047002.8,N
1633530675.3,286047002.1,N
1633530695.1,286047002.6,N
1633530715.9,286047001.7,N
1633530735.7,286047002.4,N
1633530755.6,286047000.9,N
1633530775.4,286047000.4,N
1633530795.2,286047000.5,N
1633530815.1,286047000.6,N
1633530816.0,286047000.6,N
1633530835.8,286047000.0,N
1633530855.6,286047000.4,N
1633530875.5,286047002.9,N
1633530895.3,286047004.9,Y
1633530915.2,286047005.0,P
1633530935.9,286047003.6,N
1633530955.7,286047000.1,N
1633530975.6,286047000.0,N
1633530995.4,286046998.7,N
1633531015.2,286046998.1,N
1633531035.1,286046997.4,N
1633531036.0,286046997.4,N
1633531055.8,286046999.0,N
1633531075.7,286046999.4,N
1633531095.5,286046997.0,N
1633531115.3,286046997.6,N
1633531135.2,286046999.6,N
1633531155.0,286046997.5,N
1633531155.9,286046997.5,N
1633531175.8,286046995.4,N
1633531195.6,286046995.3,N
1633531215.4,286046997.2,N
1633531235.3,286046997.3,N
1633531255.1,286046997.1,N
1633531275.8,286046999.4,N
1633531295.7,286046998.3,N
1633531315.5,286046998.2,N
1633531335.4,286047001.0,N
1633531355.2,286046996.6,N
1633531375.0,286046998.3,N
1633531375.9,286046998.3,N
1633531395.8,286046998.3,N
1633531415.6,286046998.7,N
1633531435.4,286047000.9,N
1633531455.3,286047000.2,N
1633531475.1,286047000.5,N
1633531495.9,286046999.9,N
1633531515.7,286047000.1,N
1633531535.5,286046999.7,N
1633531555.4,286047000.2,N
1633531575.2,286047000.2,N
1633531595.0,286047002.7,N
1633531595.9,286047002.7,N
1633531615.8,286047000.1,N
1633531635.6,286047000.1,N
1633531655.5,286047000.2,N
1633531675.3,286046999.8,N
1633531695.1,286047002.8,N
1633531715.9,286047000.3,N
1633531735.7,286047000.5,N
1633531755.5,286047000.1,N
1633531775.4,286047000.1,N
1633531795.2,286047000.7,N
1633531815.1,286047000.2,N
1633531816.0,286047000.2,N
1633531835.8,286047000.0,N
1633531855.6,286047000.2,N
1633531875.5,286047002.1,N
1633531895.3,286047002.4,N
1633531915.2,286047002.4,N
1633531935.9,286047002.7,N
1633531955.7,286047002.0,N
1633531975.6,286047001.3,N
1633531995.4,286047004.0,Y
1633532015.2,286047002.1,P
1633532035.1,286047001.9,N
1633532036.0,286047001.9,P
1633532055.8,286047002.6,Y
1633532075.7,286046998.8,P
1633532095.5,286046999.1,N
1633532115.3,286046998.7,N
1633532135.2,286046999.1,N
1633532155.0,286046999.6,N
1633532155.9,286046999.6,N
1633532175.8,286046996.9,Y
1633532195.6,286046998.4,P
1633532215.4,286047001.0,N
1633532235.3,286047000.3,N
1633532255.1,286047001.2,N
1633532275.8,286047001.0,N
1633532295.7,286047002.8,N
1633532315.5,286047000.0,N
1633532335.4,286047000.2,N
1633532355.2,286047000.3,N
1633532375.0,286047000.1,N
1633532375.9,286047000.1,N
1633532395.8,286047002.2,N
